XIO7AE LIMC-LEMD

Flight info

Callsign XIO7AE
Flight time 1h 57m
Altitude 39000
Route NEDED DCT GEKBA DCT VAMTU DCT KOLON DCT GANGU DCT PADKO DCT DIVKO DCT NILDU DCT NENDA N975 ADUXO
Aircraft B77L/H-SDE1E2E3FGHIJ2J3J4J5M1RWXY/LB1D1

Departure

Time 2026-05-04 13:25
Airport Milan Malpensa International Airport (LIMC)

Arrival

Time 2026-05-04 15:22
Airport Adolfo Suárez Madrid–Barajas Airport (LEMD)
Time Latitude Longitude Altitude Speed Heading
2026-05-04 13:12 45.63223 8.71256 757 ft 0 kts 77°
2026-05-04 13:14 45.63223 8.71257 757 ft 1 kts 77°
2026-05-04 13:15 45.63225 8.71276 753 ft 5 kts 83°
2026-05-04 13:15 45.63234 8.71360 757 ft 11 kts 79°
2026-05-04 13:15 45.63248 8.71466 753 ft 11 kts 79°
2026-05-04 13:15 45.63263 8.71572 753 ft 11 kts 79°
2026-05-04 13:16 45.63277 8.71677 755 ft 11 kts 79°
2026-05-04 13:16 45.63292 8.71786 751 ft 12 kts 79°
2026-05-04 13:16 45.63308 8.71905 752 ft 13 kts 82°
2026-05-04 13:16 45.63247 8.71976 753 ft 13 kts 170°
2026-05-04 13:17 45.63158 8.71998 753 ft 13 kts 168°
2026-05-04 13:17 45.63067 8.72027 752 ft 13 kts 168°
2026-05-04 13:17 45.62978 8.72051 753 ft 13 kts 170°
2026-05-04 13:17 45.62888 8.72075 754 ft 13 kts 168°
2026-05-04 13:18 45.62786 8.72104 753 ft 20 kts 169°
2026-05-04 13:18 45.62636 8.72145 755 ft 22 kts 169°
2026-05-04 13:18 45.62490 8.72185 753 ft 18 kts 169°
2026-05-04 13:18 45.62367 8.72220 752 ft 18 kts 169°
2026-05-04 13:19 45.62244 8.72253 753 ft 18 kts 169°
2026-05-04 13:19 45.62121 8.72287 752 ft 18 kts 169°
2026-05-04 13:19 45.61997 8.72321 753 ft 18 kts 168°
2026-05-04 13:19 45.61874 8.72355 756 ft 18 kts 169°
2026-05-04 13:20 45.61751 8.72389 753 ft 18 kts 168°
2026-05-04 13:20 45.61628 8.72425 754 ft 18 kts 169°
2026-05-04 13:20 45.61505 8.72458 753 ft 18 kts 169°
2026-05-04 13:20 45.61382 8.72491 753 ft 18 kts 169°
2026-05-04 13:21 45.61259 8.72525 755 ft 18 kts 169°
2026-05-04 13:21 45.61141 8.72558 753 ft 11 kts 168°
2026-05-04 13:21 45.61082 8.72604 751 ft 10 kts 121°
2026-05-04 13:21 45.61091 8.72765 750 ft 25 kts 80°
2026-05-04 13:22 45.61122 8.72985 755 ft 22 kts 79°
2026-05-04 13:22 45.61225 8.73137 754 ft 22 kts 33°
2026-05-04 13:22 45.61348 8.73254 753 ft 17 kts 28°
2026-05-04 13:22 45.61463 8.73249 756 ft 17 kts 348°
2026-05-04 13:23 45.61553 8.73224 755 ft 9 kts 349°
2026-05-04 13:23 45.61611 8.73245 752 ft 9 kts 55°
2026-05-04 13:23 45.61627 8.73338 757 ft 10 kts 80°
2026-05-04 13:23 45.61625 8.73442 757 ft 11 kts 110°
2026-05-04 13:24 45.61589 8.73543 754 ft 12 kts 109°
2026-05-04 13:24 45.61593 8.73677 748 ft 16 kts 78°
2026-05-04 13:24 45.61622 8.73740 748 ft 7 kts
2026-05-04 13:25 45.61867 8.73668 749 ft 79 kts 349°
2026-05-04 13:25 45.62682 8.73428 749 ft 157 kts 349°
2026-05-04 13:25 45.63872 8.73127 1160 ft 181 kts 348°
2026-05-04 13:25 45.65209 8.72793 1666 ft 210 kts 349°
2026-05-04 13:26 45.66780 8.72638 2158 ft 238 kts 358°
2026-05-04 13:26 45.68454 8.72641 3164 ft 243 kts 359°
2026-05-04 13:26 45.70166 8.72645 4204 ft 247 kts 359°
2026-05-04 13:26 45.71893 8.72901 4999 ft 254 kts 21°
2026-05-04 13:27 45.73320 8.74349 5933 ft 252 kts 47°
2026-05-04 13:27 45.74563 8.76165 6820 ft 258 kts 46°
2026-05-04 13:27 45.75765 8.78061 7684 ft 258 kts 62°
2026-05-04 13:27 45.76189 8.80518 8470 ft 258 kts 99°
2026-05-04 13:28 45.75501 8.82805 9429 ft 251 kts 135°
2026-05-04 13:28 45.74202 8.84504 10235 ft 253 kts 139°
2026-05-04 13:28 45.72957 8.86354 11032 ft 262 kts 134°
2026-05-04 13:28 45.71704 8.88245 11858 ft 263 kts 148°
2026-05-04 13:29 45.69993 8.89068 12735 ft 263 kts 180°
2026-05-04 13:29 45.68145 8.88775 13496 ft 278 kts 196°
2026-05-04 13:29 45.66274 8.87634 13792 ft 309 kts 213°
2026-05-04 13:29 45.64649 8.85418 14046 ft 342 kts 236°
2026-05-04 13:30 45.63826 8.82119 14464 ft 368 kts 263°
2026-05-04 13:30 45.63877 8.78414 15200 ft 378 kts 271°
2026-05-04 13:30 45.63985 8.74636 16054 ft 384 kts 267°
2026-05-04 13:30 45.63503 8.70905 16976 ft 382 kts 247°
2026-05-04 13:31 45.62388 8.67429 17794 ft 389 kts 243°
2026-05-04 13:31 45.61230 8.63910 18704 ft 394 kts 244°
2026-05-04 13:31 45.60100 8.60321 19615 ft 398 kts 245°
2026-05-04 13:31 45.58988 8.56683 20534 ft 401 kts 245°
2026-05-04 13:32 45.57872 8.53003 21361 ft 407 kts 245°
2026-05-04 13:32 45.56722 8.49299 22088 ft 407 kts 241°
2026-05-04 13:32 45.55032 8.46027 22632 ft 415 kts 223°
2026-05-04 13:32 45.52695 8.43584 23417 ft 420 kts 208°
2026-05-04 13:33 45.49996 8.42001 24153 ft 421 kts 199°
2026-05-04 13:33 45.47203 8.40658 24796 ft 426 kts 199°
2026-05-04 13:33 45.44371 8.39323 25465 ft 431 kts 199°
2026-05-04 13:33 45.41515 8.37969 26150 ft 434 kts 199°
2026-05-04 13:34 45.38640 8.36586 26829 ft 438 kts 199°
2026-05-04 13:34 45.35739 8.35173 27487 ft 442 kts 200°
2026-05-04 13:34 45.32820 8.33739 28134 ft 446 kts 200°
2026-05-04 13:34 45.29869 8.32285 28754 ft 450 kts 200°
2026-05-04 13:35 45.26895 8.30818 29368 ft 454 kts 200°
2026-05-04 13:35 45.20869 8.27852 30448 ft 462 kts 200°
2026-05-04 13:35 45.17827 8.26358 30950 ft 463 kts 201°
2026-05-04 13:36 45.14793 8.24871 31623 ft 460 kts 201°
2026-05-04 13:36 45.11781 8.23399 32395 ft 455 kts 201°
2026-05-04 13:36 45.08744 8.22208 33065 ft 454 kts 194°
2026-05-04 13:36 45.05616 8.21507 33650 ft 455 kts 191°
2026-05-04 13:37 45.02473 8.20937 34200 ft 454 kts 191°
2026-05-04 13:37 44.99347 8.20377 34699 ft 453 kts 192°
2026-05-04 13:37 44.96224 8.19784 35117 ft 453 kts 192°
2026-05-04 13:37 44.94155 8.19371 35391 ft 453 kts 192°
2026-05-04 13:38 44.89987 8.18498 35970 ft 452 kts 193°
2026-05-04 13:38 44.86881 8.17832 36427 ft 451 kts 193°
2026-05-04 13:38 44.83776 8.17165 36854 ft 451 kts 193°
2026-05-04 13:38 44.80680 8.16500 37255 ft 451 kts 193°
2026-05-04 13:39 44.77571 8.15837 37658 ft 451 kts 193°
2026-05-04 13:39 44.74466 8.15176 38076 ft 451 kts 193°
2026-05-04 13:39 44.71371 8.14513 38470 ft 449 kts 195°
2026-05-04 13:39 44.68393 8.13358 38771 ft 440 kts 209°
2026-05-04 13:40 44.65782 8.11228 38985 ft 433 kts 217°
2026-05-04 13:40 44.63237 8.08927 39132 ft 437 kts 216°
2026-05-04 13:40 44.60664 8.06646 39396 ft 438 kts 216°
2026-05-04 13:40 44.58078 8.04389 39678 ft 438 kts 215°
2026-05-04 13:41 44.55476 8.02145 39941 ft 439 kts 215°
2026-05-04 13:41 44.52869 7.99910 40168 ft 440 kts 215°
2026-05-04 13:41 44.50254 7.97676 40409 ft 441 kts 214°
2026-05-04 13:42 44.45023 7.93216 41077 ft 437 kts 214°
2026-05-04 13:42 44.42415 7.90996 41092 ft 440 kts 214°
2026-05-04 13:42 44.37233 7.86585 41108 ft 432 kts 214°
2026-05-04 13:43 44.32134 7.82254 41106 ft 428 kts 214°
2026-05-04 13:43 44.27108 7.77838 41103 ft 425 kts 218°
2026-05-04 13:44 44.22637 7.72531 41112 ft 421 kts 224°
2026-05-04 13:44 44.18278 7.67055 41111 ft 423 kts 224°
2026-05-04 13:45 44.13943 7.61503 41096 ft 423 kts 229°
2026-05-04 13:45 44.10075 7.55331 41103 ft 424 kts 231°
2026-05-04 13:46 44.06222 7.49129 41099 ft 424 kts 231°
2026-05-04 13:46 44.02345 7.42931 41091 ft 425 kts 230°
2026-05-04 13:47 43.98455 7.36737 41080 ft 426 kts 230°
2026-05-04 13:47 43.94553 7.30543 41078 ft 426 kts 230°
2026-05-04 13:48 43.90654 7.24365 41075 ft 424 kts 230°
2026-05-04 13:48 43.86770 7.18225 41068 ft 423 kts 230°
2026-05-04 13:49 43.82906 7.12128 41067 ft 420 kts 230°
2026-05-04 13:49 43.79701 7.07077 41064 ft 419 kts 230°
2026-05-04 13:50 43.75837 7.01007 41078 ft 417 kts 230°
2026-05-04 13:50 43.72441 6.94560 41081 ft 414 kts 240°
2026-05-04 13:51 43.69834 6.87475 41064 ft 413 kts 247°
2026-05-04 13:51 43.67664 6.80079 41065 ft 412 kts 248°
2026-05-04 13:52 43.64445 6.69052 41065 ft 413 kts 247°
2026-05-04 13:53 43.62270 6.61704 41050 ft 414 kts 247°
2026-05-04 13:53 43.60080 6.54340 41056 ft 415 kts 247°
2026-05-04 13:54 43.56774 6.43274 41055 ft 417 kts 247°
2026-05-04 13:55 43.53451 6.32194 41052 ft 417 kts 247°
2026-05-04 13:55 43.50108 6.21091 41041 ft 419 kts 247°
2026-05-04 13:56 43.47868 6.13679 41051 ft 419 kts 247°
2026-05-04 13:57 43.44504 6.02587 41036 ft 418 kts 246°
2026-05-04 13:58 43.40035 5.87907 41020 ft 414 kts 246°
2026-05-04 13:58 43.36691 5.76969 41013 ft 414 kts 246°
2026-05-04 13:59 43.34459 5.69696 41020 ft 413 kts 246°
2026-05-04 14:00 43.31106 5.58807 41013 ft 413 kts 246°
2026-05-04 14:00 43.27738 5.47914 41006 ft 413 kts 246°
2026-05-04 14:01 43.25489 5.40659 41014 ft 413 kts 246°
2026-05-04 14:02 43.22098 5.29782 41018 ft 414 kts 246°
2026-05-04 14:02 43.19822 5.22545 41005 ft 414 kts 246°
2026-05-04 14:03 43.17544 5.15316 40999 ft 413 kts 246°
2026-05-04 14:03 43.15335 5.08324 40993 ft 412 kts 246°
2026-05-04 14:04 43.12364 4.98941 40978 ft 412 kts 246°
2026-05-04 14:04 43.10112 4.91849 40985 ft 411 kts 245°
2026-05-04 14:05 43.06888 4.82020 40960 ft 409 kts 240°
2026-05-04 14:06 43.03658 4.75784 40970 ft 408 kts 231°
2026-05-04 14:06 42.99628 4.70339 40967 ft 408 kts 223°
2026-05-04 14:07 42.95602 4.65540 40955 ft 408 kts 223°
2026-05-04 14:07 42.91322 4.60444 40945 ft 408 kts 223°
2026-05-04 14:08 42.87051 4.55328 40958 ft 409 kts 223°
2026-05-04 14:08 42.82777 4.50198 40949 ft 410 kts 223°
2026-05-04 14:09 42.76610 4.42805 40944 ft 411 kts 223°
2026-05-04 14:10 42.71280 4.36433 40942 ft 412 kts 223°
2026-05-04 14:10 42.67206 4.31574 40941 ft 413 kts 223°
2026-05-04 14:11 42.63263 4.26878 40934 ft 413 kts 223°
2026-05-04 14:11 42.57214 4.19692 40932 ft 413 kts 223°
2026-05-04 14:12 42.53041 4.14744 40916 ft 414 kts 223°
2026-05-04 14:13 42.46816 4.07381 40921 ft 414 kts 223°
2026-05-04 14:13 42.42470 4.02252 40927 ft 415 kts 223°
2026-05-04 14:14 42.38118 3.97126 40925 ft 415 kts 223°
2026-05-04 14:14 42.31576 3.89436 40916 ft 415 kts 223°
2026-05-04 14:15 42.23554 3.78361 40933 ft 413 kts 235°
2026-05-04 14:16 42.18589 3.68868 40923 ft 412 kts 235°
2026-05-04 14:17 42.13610 3.59408 40918 ft 412 kts 235°
2026-05-04 14:18 42.08614 3.49973 40921 ft 412 kts 235°
2026-05-04 14:19 42.01950 3.37440 40921 ft 412 kts 235°
2026-05-04 14:19 41.98614 3.31185 40915 ft 412 kts 235°
2026-05-04 14:20 41.95274 3.24935 40917 ft 412 kts 235°
2026-05-04 14:20 41.91932 3.18693 40909 ft 411 kts 235°
2026-05-04 14:21 41.86919 3.09356 40915 ft 411 kts 235°
2026-05-04 14:21 41.83570 3.03135 40935 ft 411 kts 234°
2026-05-04 14:22 41.80212 2.96908 40917 ft 412 kts 234°
2026-05-04 14:22 41.76856 2.90698 40922 ft 411 kts 234°
2026-05-04 14:23 41.71814 2.81388 40921 ft 411 kts 234°
2026-05-04 14:24 41.69017 2.76239 40937 ft 411 kts 234°
2026-05-04 14:24 41.65578 2.70131 40926 ft 411 kts 233°
2026-05-04 14:25 41.62045 2.64120 40946 ft 411 kts 232°
2026-05-04 14:25 41.56745 2.55086 40933 ft 412 kts 233°
2026-05-04 14:26 41.53215 2.49051 40920 ft 412 kts 233°
2026-05-04 14:26 41.49695 2.43039 40933 ft 411 kts 233°
2026-05-04 14:27 41.46173 2.37036 40954 ft 411 kts 233°
2026-05-04 14:27 41.42644 2.31034 40948 ft 411 kts 233°
2026-05-04 14:28 41.39112 2.25037 40969 ft 412 kts 232°
2026-05-04 14:28 41.35567 2.19027 40958 ft 413 kts 232°
2026-05-04 14:29 41.32274 2.12798 40945 ft 412 kts 243°
2026-05-04 14:29 41.30165 2.05695 40960 ft 415 kts 253°
2026-05-04 14:30 41.29171 1.98111 40969 ft 417 kts 259°
2026-05-04 14:31 41.27939 1.86630 40943 ft 419 kts 259°
2026-05-04 14:32 41.26180 1.71350 40934 ft 418 kts 258°
2026-05-04 14:32 41.25283 1.63717 40932 ft 418 kts 258°
2026-05-04 14:33 41.24375 1.56092 40929 ft 417 kts 258°
2026-05-04 14:33 41.23464 1.48478 40935 ft 418 kts 258°
2026-05-04 14:34 41.22547 1.40850 40937 ft 418 kts 258°
2026-05-04 14:34 41.21624 1.33213 40935 ft 419 kts 258°
2026-05-04 14:35 41.20696 1.25567 40941 ft 420 kts 258°
2026-05-04 14:35 41.19761 1.17913 40938 ft 420 kts 258°
2026-05-04 14:36 41.18821 1.10251 40946 ft 421 kts 258°
2026-05-04 14:36 41.17876 1.02565 40941 ft 422 kts 258°
2026-05-04 14:37 41.16923 0.94857 40935 ft 423 kts 258°
2026-05-04 14:37 41.15966 0.87151 40906 ft 423 kts 258°
2026-05-04 14:38 41.15002 0.79433 40903 ft 424 kts 258°
2026-05-04 14:38 41.14031 0.71702 40907 ft 425 kts 258°
2026-05-04 14:39 41.13056 0.63967 40903 ft 425 kts 258°
2026-05-04 14:39 41.12088 0.56240 40897 ft 424 kts 258°
2026-05-04 14:40 41.10624 0.44661 40880 ft 424 kts 258°
2026-05-04 14:40 41.09623 0.36964 40911 ft 423 kts 258°
2026-05-04 14:41 41.08614 0.29269 40883 ft 424 kts 258°
2026-05-04 14:42 41.06593 0.13920 40889 ft 422 kts 258°
2026-05-04 14:42 41.05578 0.06269 40884 ft 421 kts 258°
2026-05-04 14:43 41.04559 -0.01374 40900 ft 421 kts 258°
2026-05-04 14:43 41.03535 -0.09015 40887 ft 422 kts 258°
2026-05-04 14:44 41.02504 -0.16672 40894 ft 422 kts 258°
2026-05-04 14:44 41.01467 -0.24331 40887 ft 423 kts 257°
2026-05-04 14:45 41.00047 -0.31869 40891 ft 422 kts 249°
2026-05-04 14:45 40.98045 -0.39164 40895 ft 422 kts 249°
2026-05-04 14:46 40.96048 -0.46472 40907 ft 423 kts 249°
2026-05-04 14:46 40.94056 -0.53801 40907 ft 424 kts 249°
2026-05-04 14:47 40.92055 -0.61160 40911 ft 425 kts 249°
2026-05-04 14:47 40.90049 -0.68521 40890 ft 425 kts 249°
2026-05-04 14:48 40.88038 -0.75877 40904 ft 425 kts 249°
2026-05-04 14:48 40.86022 -0.83209 40910 ft 425 kts 249°
2026-05-04 14:49 40.83986 -0.90548 40908 ft 426 kts 249°
2026-05-04 14:49 40.81945 -0.97884 40917 ft 426 kts 249°
2026-05-04 14:50 40.79900 -1.05226 40933 ft 426 kts 249°
2026-05-04 14:50 40.77851 -1.12564 40919 ft 427 kts 249°
2026-05-04 14:51 40.75793 -1.19913 40926 ft 426 kts 249°
2026-05-04 14:51 40.73761 -1.27149 40365 ft 420 kts 249°
2026-05-04 14:52 40.72751 -1.30741 39793 ft 418 kts 249°
2026-05-04 14:52 40.71737 -1.34345 39142 ft 420 kts 249°
2026-05-04 14:52 40.70719 -1.37962 38412 ft 421 kts 249°
2026-05-04 14:52 40.69698 -1.41587 37579 ft 422 kts 249°
2026-05-04 14:53 40.68677 -1.45205 36805 ft 421 kts 248°
2026-05-04 14:53 40.67657 -1.48819 36051 ft 420 kts 248°
2026-05-04 14:53 40.66640 -1.52416 35256 ft 420 kts 248°
2026-05-04 14:53 40.65620 -1.56017 34457 ft 420 kts 248°
2026-05-04 14:54 40.64599 -1.59617 33513 ft 420 kts 248°
2026-05-04 14:54 40.63579 -1.63205 32771 ft 416 kts 248°
2026-05-04 14:54 40.62571 -1.66750 32101 ft 411 kts 248°
2026-05-04 14:54 40.61575 -1.70245 31491 ft 406 kts 248°
2026-05-04 14:55 40.60589 -1.73704 30873 ft 401 kts 248°
2026-05-04 14:55 40.59612 -1.77126 30294 ft 396 kts 248°
2026-05-04 14:55 40.58647 -1.80499 29643 ft 392 kts 248°
2026-05-04 14:55 40.57692 -1.83835 29006 ft 388 kts 248°
2026-05-04 14:56 40.56746 -1.87134 28414 ft 383 kts 248°
2026-05-04 14:56 40.55811 -1.90393 27833 ft 379 kts 248°
2026-05-04 14:56 40.54884 -1.93617 27255 ft 376 kts 249°
2026-05-04 14:56 40.53962 -1.96821 26693 ft 373 kts 249°
2026-05-04 14:57 40.53047 -1.99996 26140 ft 370 kts 249°
2026-05-04 14:57 40.52137 -2.03154 25572 ft 368 kts 249°
2026-05-04 14:57 40.51230 -2.06290 25046 ft 366 kts 249°
2026-05-04 14:57 40.50328 -2.09416 24500 ft 365 kts 249°
2026-05-04 14:58 40.49430 -2.12529 23953 ft 364 kts 249°
2026-05-04 14:58 40.48535 -2.15631 23472 ft 361 kts 249°
2026-05-04 14:58 40.47660 -2.18663 23303 ft 349 kts 249°
2026-05-04 14:58 40.47084 -2.20658 23173 ft 342 kts 249°
2026-05-04 14:59 40.45985 -2.24450 22980 ft 328 kts 249°
2026-05-04 14:59 40.45193 -2.27202 22818 ft 315 kts 251°
2026-05-04 14:59 40.45003 -2.31871 22504 ft 304 kts 278°
2026-05-04 15:00 40.45615 -2.34522 22167 ft 305 kts 292°
2026-05-04 15:00 40.46611 -2.36984 21834 ft 305 kts 295°
2026-05-04 15:00 40.47669 -2.39415 21478 ft 310 kts 296°
2026-05-04 15:01 40.49850 -2.44401 20748 ft 317 kts 296°
2026-05-04 15:01 40.50937 -2.46910 20374 ft 315 kts 295°
2026-05-04 15:01 40.52010 -2.49408 20007 ft 312 kts 295°
2026-05-04 15:01 40.53069 -2.51884 19647 ft 309 kts 295°
2026-05-04 15:02 40.54115 -2.54343 19289 ft 307 kts 295°
2026-05-04 15:02 40.55149 -2.56780 18939 ft 304 kts 295°
2026-05-04 15:02 40.56172 -2.59198 18586 ft 302 kts 295°
2026-05-04 15:02 40.57186 -2.61599 18216 ft 299 kts 295°
2026-05-04 15:03 40.58193 -2.63982 17830 ft 296 kts 295°
2026-05-04 15:03 40.59189 -2.66342 17474 ft 294 kts 295°
2026-05-04 15:03 40.60173 -2.68678 17130 ft 290 kts 295°
2026-05-04 15:03 40.61147 -2.70990 16787 ft 287 kts 295°
2026-05-04 15:04 40.62104 -2.73262 16611 ft 278 kts 295°
2026-05-04 15:04 40.63022 -2.75443 16492 ft 267 kts 295°
2026-05-04 15:04 40.63903 -2.77537 16347 ft 256 kts 295°
2026-05-04 15:04 40.64745 -2.79539 16250 ft 245 kts 295°
2026-05-04 15:05 40.65567 -2.81499 16151 ft 248 kts 295°
2026-05-04 15:05 40.66457 -2.83518 15867 ft 260 kts 297°
2026-05-04 15:05 40.67402 -2.85562 15578 ft 262 kts 297°
2026-05-04 15:05 40.68352 -2.87602 15275 ft 260 kts 297°
2026-05-04 15:06 40.69293 -2.89623 14962 ft 257 kts 297°
2026-05-04 15:06 40.70217 -2.91612 14688 ft 253 kts 297°
2026-05-04 15:06 40.71127 -2.93574 14409 ft 249 kts 297°
2026-05-04 15:07 40.72897 -2.97408 13841 ft 242 kts 297°
2026-05-04 15:07 40.73777 -2.99319 13561 ft 247 kts 297°
2026-05-04 15:07 40.74681 -3.01288 13264 ft 254 kts 297°
2026-05-04 15:07 40.75597 -3.03282 12996 ft 253 kts 297°
2026-05-04 15:08 40.76503 -3.05251 12700 ft 249 kts 297°
2026-05-04 15:08 40.77392 -3.07187 12415 ft 244 kts 298°
2026-05-04 15:08 40.78262 -3.09080 12141 ft 239 kts 298°
2026-05-04 15:08 40.79124 -3.10961 11886 ft 242 kts 298°
2026-05-04 15:09 40.80007 -3.12893 11619 ft 249 kts 298°
2026-05-04 15:09 40.80910 -3.14867 11324 ft 252 kts 298°
2026-05-04 15:09 40.81809 -3.16830 11032 ft 248 kts 298°
2026-05-04 15:10 40.83555 -3.20646 10484 ft 238 kts 298°
2026-05-04 15:10 40.84413 -3.22523 10214 ft 233 kts 297°
2026-05-04 15:10 40.86111 -3.26249 9691 ft 243 kts 298°
2026-05-04 15:11 40.86991 -3.28175 9403 ft 245 kts 298°
2026-05-04 15:11 40.87868 -3.30091 9117 ft 241 kts 299°
2026-05-04 15:11 40.88728 -3.31972 8830 ft 237 kts 299°
2026-05-04 15:11 40.89567 -3.33812 8552 ft 231 kts 299°
2026-05-04 15:12 40.90378 -3.35591 8284 ft 227 kts 299°
2026-05-04 15:12 40.91208 -3.37422 8047 ft 231 kts 297°
2026-05-04 15:12 40.91755 -3.39393 7827 ft 235 kts 282°
2026-05-04 15:12 40.92079 -3.41519 7599 ft 236 kts 280°
2026-05-04 15:13 40.92391 -3.43650 7355 ft 234 kts 280°
2026-05-04 15:13 40.92498 -3.45724 7099 ft 222 kts 262°
2026-05-04 15:13 40.92205 -3.47751 6908 ft 224 kts 261°
2026-05-04 15:13 40.91933 -3.49766 6674 ft 219 kts 258°
2026-05-04 15:14 40.91260 -3.51511 6486 ft 213 kts 227°
2026-05-04 15:14 40.90060 -3.52618 6356 ft 211 kts 210°
2026-05-04 15:14 40.88753 -3.53431 6203 ft 202 kts 208°
2026-05-04 15:14 40.87489 -3.54188 6123 ft 196 kts 209°
2026-05-04 15:15 40.86198 -3.54767 6056 ft 200 kts 195°
2026-05-04 15:15 40.84811 -3.55076 6025 ft 203 kts 192°
2026-05-04 15:15 40.83422 -3.55361 6009 ft 201 kts 193°
2026-05-04 15:16 40.80642 -3.55956 6014 ft 205 kts 191°
2026-05-04 15:16 40.79213 -3.56100 6006 ft 207 kts 186°
2026-05-04 15:16 40.76322 -3.56136 6005 ft 209 kts 184°
2026-05-04 15:17 40.74868 -3.56126 6020 ft 210 kts 184°
2026-05-04 15:17 40.71934 -3.56101 5715 ft 214 kts 184°
2026-05-04 15:17 40.70457 -3.56090 5419 ft 210 kts 184°
2026-05-04 15:18 40.69009 -3.56076 5150 ft 205 kts 184°
2026-05-04 15:18 40.67625 -3.56063 4896 ft 195 kts 184°
2026-05-04 15:18 40.66290 -3.56054 4618 ft 188 kts 183°
2026-05-04 15:19 40.63804 -3.56031 4150 ft 171 kts 184°
2026-05-04 15:19 40.62643 -3.56023 3922 ft 166 kts 184°
2026-05-04 15:19 40.60447 -3.56005 3503 ft 146 kts 183°
2026-05-04 15:20 40.59422 -3.55995 3291 ft 142 kts 184°
2026-05-04 15:20 40.58444 -3.55990 3092 ft 140 kts 184°
2026-05-04 15:20 40.57473 -3.55983 2904 ft 140 kts 184°
2026-05-04 15:20 40.56492 -3.55968 2692 ft 141 kts 182°
2026-05-04 15:21 40.55508 -3.55946 2515 ft 143 kts 184°
2026-05-04 15:21 40.54514 -3.55944 2333 ft 143 kts 185°
2026-05-04 15:21 40.52563 -3.55937 1976 ft 137 kts 186°
2026-05-04 15:22 40.51697 -3.55936 1956 ft 105 kts 179°
2026-05-04 15:22 40.51152 -3.55931 1960 ft 52 kts 181°
2026-05-04 15:22 40.50904 -3.56038 1966 ft 21 kts 210°
2026-05-04 15:23 40.50766 -3.56135 1974 ft 23 kts 201°
2026-05-04 15:23 40.50609 -3.56149 1968 ft 23 kts 179°
2026-05-04 15:23 40.50450 -3.56149 1967 ft 23 kts 180°
2026-05-04 15:23 40.50291 -3.56148 1964 ft 23 kts 179°
2026-05-04 15:24 40.49966 -3.56146 1963 ft 23 kts 179°
2026-05-04 15:24 40.49641 -3.56143 1963 ft 23 kts 179°
2026-05-04 15:25 40.49479 -3.56143 1964 ft 23 kts 179°
2026-05-04 15:25 40.49317 -3.56142 1964 ft 23 kts 180°
2026-05-04 15:25 40.49154 -3.56144 1963 ft 23 kts 180°
2026-05-04 15:26 40.48994 -3.56139 1963 ft 0 kts 181°
2026-05-04 15:27 40.48770 -3.56209 1965 ft 13 kts 267°
2026-05-04 15:27 40.48767 -3.56534 1978 ft 22 kts 269°
2026-05-04 15:28 40.48765 -3.56938 1986 ft 22 kts 273°
2026-05-04 15:28 40.48765 -3.57140 1990 ft 22 kts 269°
2026-05-04 15:28 40.48762 -3.57541 1994 ft 22 kts 270°
2026-05-04 15:29 40.48762 -3.57742 1997 ft 22 kts 270°
2026-05-04 15:30 40.48476 -3.57835 1997 ft 25 kts 152°
2026-05-04 15:30 40.48068 -3.57443 2004 ft 24 kts 142°
2026-05-04 15:31 40.47801 -3.57172 2002 ft 24 kts 142°
2026-05-04 15:31 40.47669 -3.57038 1998 ft 22 kts 142°
2026-05-04 15:32 40.47324 -3.56686 1991 ft 17 kts 142°
2026-05-04 15:32 40.47104 -3.56483 1985 ft 22 kts 156°
2026-05-04 15:33 40.46794 -3.56465 1982 ft 23 kts 183°
2026-05-04 15:34 40.46321 -3.56510 1976 ft 20 kts 204°
2026-05-04 15:34 40.46292 -3.56598 1975 ft 6 kts 258°
2026-05-04 15:34 40.46227 -3.56754 1977 ft 12 kts 178°
2026-05-04 15:35 40.46010 -3.56752 1976 ft 22 kts 180°
2026-05-04 15:35 40.45882 -3.56850 1976 ft 22 kts 226°
2026-05-04 15:35 40.45774 -3.56991 1980 ft 22 kts 224°
2026-05-04 15:36 40.45577 -3.57254 1981 ft 15 kts 244°
2026-05-04 15:36 40.45625 -3.57369 1978 ft 15 kts 314°
2026-05-04 15:36 40.45700 -3.57470 1979 ft 15 kts 314°
2026-05-04 15:37 40.45770 -3.57561 1973 ft 7 kts 314°
2026-05-04 15:37 40.45802 -3.57579 1978 ft 4 kts 13°
2026-05-04 15:37 40.45811 -3.57556 1973 ft 0 kts 66°
2026-05-04 15:37 40.45820 -3.57545 1973 ft 2 kts 45°